"Pseudo-MPEC" for A10wotD

Created 2021 Jun 17 4:07:08 UT using Find_Orb

Click here for an explanation of pseudo-MPECs

 
 Astrometry: 
     A10wotD  C2020 11 03nNbHuqK#bDeT)mmpuP=^4+N(KupChV7_k6eHxcg,eJS3@N=83+waF52
     A10wotD  C2020 11 034H6*E$`\t%ueo:3G$TTC%a0y6MkIYhdm6!Q5YkqTpG??a-g?au=@F52
     A10wotD  C2020 11 03\M@rU1uhT`5D;fZtW+N(RHGn/hgJc*k2eLAPHc*bxO#/wunWG(YoF52
     A10wotD  C2020 11 27.38433 06 45 08.73 -24 22 47.1    ~5D6b 19.9 GVNEOCPG96
     A10wotD  C2020 11 27.39564 06 45 08.59 -24 22 47.8    ~5D6b 19.8 GVNEOCPG96
     A10wotD  C2020 11 27.40078 06 45 08.52 -24 22 49.8    ~5D6b 20.1 GVNEOCPG96
     A10wotD  C2020 11 27.40590 06 45 08.45 -24 22 50.7    ~5D6b 20.2 GVNEOCPG96
     A10wotD  C2020 12 12.36930 06 41 09.26 -25 00 33.7    ~5D5q 19.6 GVNEOCPG96
     A10wotD  C2020 12 12.37489 06 41 09.18 -25 00 33.8    ~5D5q 19.8 GVNEOCPG96
     A10wotD  C2020 12 12.38048 06 41 09.06 -25 00 34.7    ~5D5q 19.9 GVNEOCPG96
     A10wotD  C2020 12 12.38606 06 41 08.96 -25 00 35.3    ~5D5q 19.9 GVNEOCPG96
     A10wotD KC2020 12 29kG\;eA`?-%k(V9k:!ii$-RV\G6:Hrs=ctSX9N?X5DJ==.o?Q^w8kF52
     A10wotD  C2021 04 11.24917906 23 25.26 -21 34 52.4    ~4B97 19.36cVNEOCPT08
     A10wotD  C2021 04 11.25333506 23 25.36 -21 34 51.9    ~4B97 19.17cVNEOCPT08
     A10wotD  C2021 04 11.25979506 23 25.48 -21 34 51.6    ~4B97 19.71cVNEOCPT08
     A10wotD  C2021 04 11.27272006 23 25.57 -21 34 48.3    ~4B97 19.22cVNEOCPT08
     A10wotD |C2021 04 11-ulC5:ob1X67PG0.\T2/Pb$InF,-T'SQpm!2XYIQJyxZaZit4R$Q807
     A10wotD |C2021 04 11VMELsQ4'Yg3)54mGeDrv,%1uSE'WP]*u0XMD9`ei:+HJlhhCtnTJ807
     A10wotD |C2021 04 12!yQY*i=%SO,QilI6=dueZF1Hh.B\bF8RqFAhKtrX%a$Adn8NjWbj807
     A10wotD |C2021 04 12C0XQ-o:S-0_XV[Trm33LUx@Gd%i.HygS`6GnwWSUg4/IB(V;h1mc807
     A10wotD KC2021 04 13XtM7c69#m#mnKjL$E98.[637,Uy4MFj\?-9fd,[5vamuT,)KAt^2E23
     A10wotD KC2021 04 139hYX-X\w:V^-B9Wk5r9d'EGR@A6,!)t[;PBs3?giXte43wZos@PrE23
     A10wotD KC2021 04 13h(8/rD1rF=Hhk5aXX?-D.@uhwDa=uY+#qoPoZ,AAstrometryIinE23
     A10wotD 1C2021 04 14nYUM7OZ5]TdK+/2#*kbaW7e7C,=GOe;.ABpVi-eTXpcDsmi\.+mFQ62
     A10wotD 1C2021 04 14J+CVj+h`nc\H39k@$ERNbvH/?^$+N6a*m,i5F7x(91A++y*]Nm3PQ62
     A10wotD  C2021 04 15RhtVs8^dTh1:1F`IDhbUdG:=RwEEdu!p=PkBd/v,@6=fv@0?]?]*474
     A10wotD  C2021 04 15Y60F[Nu7D9g$^chm`N3Pky'fc#\]-o]x%)Y-%J+rk/VUQ#o%6EJi474
     A10wotD  C2021 04 15j,mhcU7GSpPf#/7.'(q77H:,'*RQM2v39iUDl#wb.de=UMy]D6uF474
     A10wotD KC2021 04 17+[Mi3YqU*9x`;C,sto'84Dmbw+,4-saZOm3OrB!27D0rg716$d3/X31
     A10wotD KC2021 04 17J!iWN+lk4_X=b*_cva5aYxj$hIBXG#H$R-JwA0/^L:Ci0s*EZ=3.X31
     A10wotD KC2021 04 19Z!1#Wi$[k\gx-sqMWCgTfx(pw3yOu4+,7bPowuQN^\GUd%RQ3);4X31
     A10wotD KC2021 04 19[X4awHF^9c4.`c`Y7D;_T%,1QKnG9OY;dtm2AQL*?4D(t#@ss%MxX31
     A10wotD KC2021 04 20CYcN^2Ox;.redacted;m%]`l$kr.0,R9[03T)8[[5nE=-1m_LUR,X31
     A10wotD KC2021 04 208mxp^JXo0ebkuuy$g4_V)^M6otuBP'NBtmYPK(`6j,1?_5`tu#YiX31
     A10wotD KC2021 04 21m)dBKnIyjDY]W//_IE)/1oFbiuXF/G98e5=3^p$(Oa_8JxaJ'K5)X02
     A10wotD KC2021 04 21@[kc1I/tKfjk)$Oy(X(Cq@Hpclick[LQ,a5LvZi-^R[/.GyyPWO)X02
     A10wotD KC2021 04 21_a1]2Q+\314?rIFn)iVgB7PP_*P5aY?!tP^,\CioTWhLZhtcXP+hE94
     A10wotD KC2021 04 215*M?Z[m[\gfttH==qKt_QTNKq,V`jFjqe%3rI6:50h7'+.RYG)gOE94
     A10wotD KC2021 04 21U851ou!;@LZE_5qbKeQ\SBc8*qRy^[TwqeFF@;@Fue,07H\rVB[HE94
     A10wotD KC2021 04 27MQ@YQX:_/e%UfyJ,FL,d=T?.rO+.x2_rkjP_*:%cIEbtQbtWn8t#E23
     A10wotD KC2021 04 279n11wpsu(3GM#RgalFJ;kgivO=TxV(!ovfZt]TI?gqmD#4,oZ0dKE23
     A10wotD KC2021 04 27wT!'qU%'8v4FWb]e2#R]JP:^6/rGMCx'xYST^Zl1ZeBCH-/%9FOiE23
     A10wotD KC2021 04 29`gI_'v\YX[9eiQy5p0o5,l79Uq,UFvohVrM7Idp'EcF4;E#10LskE94
     A10wotD KC2021 04 290(b^c8-QH$_OB00gsVU4UXy?_S\XEF`-bxJU,!#fZ=;MKj[y562hE94
     A10wotD KC2021 04 290qBl)glhereiNTBy/(gn4^/7e4[eIZ9FiIqeoRaDf%%nZFn*%_o9E94
     A10wotD KC2021 04 30@[bU5UUX%MCtMu\qVR751_IX!bWXsxm5-\kb;J58D=4ZhDfZ3x?]E23
     A10wotD KC2021 04 30VuUrU2*)dwKZchO3Wg2t!Fcy3C31pAk%9G7DPVuH'Ufo^SMLe!'2E23
     A10wotD KC2021 04 30'y;ndX+ICxJ4vjL#L[Cu@vHl$s(BT'^HkpfP?c(jxYDB+!nfDj`uE23
     A10wotD KC2021 05 04.90590306 30 00.60 -20 30 27.6    ~54Nb 19.0 GXNEOCPY00
     A10wotD KC2021 05 04.92523106 30 01.00 -20 30 24.7    ~54Nb 18.9 GXNEOCPY00
     A10wotD KC2021 05 04.94456006 30 01.41 -20 30 21.9    ~54Nb 18.9 GXNEOCPY00
     A10wotD KC2021 05 07.92191006 31 04.10 -20 23 46.0    ~581M 19.4 GXNEOCPY00
     A10wotD KC2021 05 07.92581606 31 04.17 -20 23 45.7    ~581M 18.9 GXNEOCPY00
     A10wotD KC2021 05 07.92965906 31 04.26 -20 23 45.0    ~581M 18.9 GXNEOCPY00
     A10wotD KC2021 05 07.93350106 31 04.35 -20 23 44.7    ~581M 19.0 GXNEOCPY00
     A10wotD KC2021 05 11lR7J?mforZ+)k!Iu@3Wd16c-ud/F^l/u=5ndonoR_J4j5k/\r-W\L81
     A10wotD KC2021 05 11csEcv)V_XMtLkC@:vYdRGTg9=Au5(RLlKUVUe;g85:]X4w.Ha`opL81
     A10wotD KC2021 05 11'b3H7#+DOwJ,/rAQd0EHBYE+[ak+WMmDO+GZOP1S+3:6.ETj:$E_L81
     A10wotD KC2021 05 12.91100706 32 54.83 -20 13 37.6    ~5D1M 20.1 GXNEOCPY00
     A10wotD KC2021 05 12.92109406 32 55.08 -20 13 35.1    ~5D1M 19.5 GXNEOCPY00
     A10wotD KC2021 05 12.93118606 32 55.33 -20 13 34.3    ~5D1M       XNEOCPY00
     A10wotD KC2021 05 12.94591706 32 55.67 -20 13 32.5    ~5D1M 18.9 GXNEOCPY00
     A10wotD KC2021 05 14=kjt^rGC@(LJ9YUWlpG;r`X2d42IQ#:%uRxBOr$UB4xOHwZ=SR#1E94
     A10wotD KC2021 05 14gFPkQ-_W\7/%@')u#!/UQi#(Iu[Uxls@l$1D1pUnadM'EVV2?Xc.E94
     A10wotD KC2021 05 145EW0fcL_]scn=OLCYjJ:iZpkl5#/w9T.#4t@aY#ZwKQLC#IGsp6-E94
     A10wotD KC2021 05 14f'U_/,R:UR4v9HSMy%$KH[N%(!ur.Tbq9r$kjrFB-v6/P=./v3W1E94
     A10wotD KC2021 05 16;6n2f$N@gyY9W$)P%%7!oF+3.n/ut6h,NU0uQV/j3gMcl-THT-iRE94
     A10wotD KC2021 05 167(MMD;3MpD)FO_/tsv!6i.E7eyxT--(4['OnTl]FvC/pp+q`t+eEE94
     A10wotD KC2021 05 16_dyU`bGtw($l\$8s$4p3*fV'm622[KP4ouipIfxM24Q%-U9$hxDaE94
     A10wotD KC2021 05 18TKTj8@%cq9jf4368S4ef=k/L^go\2Vj7d4O^9mUS7uAJ1Y#yyC!pE94
     A10wotD KC2021 05 184eBsRk/!Veh_$(RY5iU0m@DqtCnOm):5VG[??\sOb5DA93eHCXiAE94
     A10wotD KC2021 05 18)=xl1[a!k.\dMr^WtlTDgnWRTe_vHno[V[qEEi)]Hr'6@8B7FavvE94
     A10wotD KC2021 05 18.90291706 35 16.52 -20 02 58.8    ~5IMq 19.1 GXNEOCPY00
     A10wotD KC2021 05 18.91076406 35 16.75 -20 02 56.9    ~5IMq 18.8 GXNEOCPY00
     A10wotD KC2021 05 18.91862306 35 16.99 -20 02 57.1    ~5IMq 19.4 GXNEOCPY00
     A10wotD KC2021 05 190Sk0KF2,P#KOl.RdkT]LDWdgn1(k-8DR###2/)b2/kY=CCcRZ5v8E94
     A10wotD KC2021 05 19T=`?F+8)Y;)\r;FVW2eIE\Fiyx#5uoC8Vb8aBQk!Ft8?j^uGJ:ppE94
     A10wotD KC2021 05 19v=9voej2b]B$uexplanation]FLNM#:lmRA:[eL1\eaQ(vnhYjlTE94
     A10wotD KC2021 05 19M9[V;bY/.aOt=d_jOuU7M7qI+`(uR6#EKY:g8Iurd$l(B,Lr''c.E94
     A10wotD *C2021 05 26sZW$@9TM*Wr/63w(6rT!QF)s,/k46TBciThcGv6Q-c;wP8Yfd3g;E10
     A10wotD *C2021 05 263J5@YTJ5P3X^UA,+278uRi%jHkU53JI]_iq@wu/M.gf.rIt/ob+tE10
     A10wotD *C2021 05 26,.@;CSflj%[aEX6T`EAL=*xf$-\NIB0PBKMOkt@q/[hrK(ql.4P,E10
     A10wotD KC2021 06 01.89329306 41 19.33 -19 45 15.9    ~61Mb 18.8 GXNEOCPY00
     A10wotD KC2021 06 01.89963506 41 19.46 -19 45 15.7    ~61Mb 18.6 GXNEOCPY00
     A10wotD KC2021 06 01.90639506 41 19.68 -19 45 15.4    ~61Mb 18.8 GXNEOCPY00

Station data:
(474) Mount John Observatory, Lake Tekapo  (S43.987388 E170.464960)  New
   Zealand.  Observers A. C. Gilmore, P. M. Kilmartin. Measurer P. M.
   Kilmartin. 1.0-m f/7.7 reflector + CCD.
(807) Cerro Tololo Observatory, La Serena  (S30.169136 W70.805900)  Chile.
(E10) Siding Spring-Faulkes Telescope South  (S31.273173 E149.070280)
   Australia/NSW.
(E23) Arcadia  (S33.621199 E151.071190)  Australia/NSW.
(E94) Gisborne (Possum Observatory)  (S38.629922 E177.883310)  New Zealand.
(F52) Pan-STARRS 2, Haleakala  (N20.707384 W156.255910)  US/Hawaii. 1.8-m
   Ritchey-Chrétien + CCD.
(G96) Mt. Lemmon Survey  (N32.442754 W110.788720)  US/Arizona.  Observers T.
   A. Pruyne, B. M. Africano, E. J. Christensen, G. A. Farneth, D. C. Fuls,
   A. R. Gibbs, A. D. Grauer, H. Gröller, J. A. Johnson, R. A. Kowalski, S.
   M. Larson, G. J. Leonard, D. Rankin, R. L. Seaman, F. C. Shelly. 1.5-m
   reflector + 10K CCD.
(L81) Skygems Namibia Remote Observatory  (S23.236422 E16.361690)  Namibia.
(Q62) iTelescope Observatory, Siding Spring  (S31.273289 E149.064420)
   Australia/NSW. 0.50-m f/6.8 astrograph + CCD + focal reducer, 0.70-m f/6.6
   astrograph + CCD.
(T08) ATLAS-MLO, Mauna Loa  (N19.536152 W155.576050)  US/Hawaii.  Observers
   L. Denneau, A. Heinze, H. Weiland, J. Tonry, H. Flewelling, A.
   Fitzsimmons, D. Young, B. Stalder. Measurers L. Denneau, A. Heinze, J.
   Tonry. 0.5-m f/2.0 Schmidt + CCD.
(X02) Telescope Live, El Sauce  (S30.470668 W70.764830)  Chile.
(X31) Galileo Galilei Observatory, Oro Verde  (S31.823022 W60.520660)
   Argentina.
(Y00) SONEAR Observatory, Oliveira  (S20.715082 W44.784960)  Brazil.
   Observers C. Jacques, E. Pimentel, J. Barros. Measurer C. Jacques. 0.28-m
   f/2.2 astrograph + CCD.

Orbital elements:  A10wotD
   Perihelion 2024 Sep 9.919283 +/- 0.307715 TT = 22:03:46 (JD 2460563.419283)
Epoch 2021 Jun  1.0 TT = JDT 2459366.5   Ju: 0.3134           AutoNEOCP
M 359.99620532 +/- 0.0022074        (J2000 ecliptic)
n   0.00000317 +/- 1.63216e-6       Peri.  343.38127 +/- 0.0016903
a4589.12165 +/- 2270                Node   221.14615 +/- 0.0010241
e   0.9989157 +/- 0.000400606       Incl.   48.47683 +/- 0.0002354
P 310881                   H  9.0   G  0.15   U  3.8  
q 4.97567573 +/- 0.000950194    Q 9173.26763 +/- 4542
From 85 observations 2020 Nov. 3-2021 June 1; mean residual 0".48
Residuals in arcseconds: 
201103 F52  .19+  .26+    210417 X31  .40-  .48+    210512 Y00  .11-  1.1-    
201103 F52  .11+  .06+    210419 X31  .17+  .16+    210512 Y00  .18+  .23+    
201103 F52  .12+  .17-    210419 X31  .22+  .38-    210512 Y00  .48+  .15-    
201127 G96  .22-  .08-    210420 X31  .43+  .51-    210512 Y00  .55+  .07-    
201127 G96  .08+  1.3+    210420 X31  .03-  .69-    210514 E94  .37+  .15-    
201127 G96  .13+  .18+    210421 X02  .03+  .02+    210514 E94  .71-  .53-    
201127 G96  .17+  .20+    210421 X02  .12-  .04-    210514 E94  .56-  .27+    
